When you browse on this site, cookies collect data to enhance your experience and personalize the content and advertising you see.
Visit our Privacy Policy to learn more. By continuing to use the site, you agree to this use of cookies and data.
  • In Schweiz
  • Länderverzeichnis
  • Für 7 Tage
  • Wassertemperatur
  • Wetterkarte
  • Widgets
  • user-avatar
    Anmelden

    Stündliche Wetter Budapest

    Heute, 10 April, Freitag

    Zeit Temperatur Niederschläge Wind Luftdruck Luftfeuchtigkeit
    00:00 +13°C° 0 mm 3 m/S 756 mmHg 54%
    01:00 +12°C° 0 mm 3 m/S 756 mmHg 55%
    02:00 +12°C° 0 mm 3 m/S 756 mmHg 56%
    03:00 +12°C° 0 mm 3 m/S 756 mmHg 57%
    04:00 +11°C° 0 mm 3 m/S 756 mmHg 59%
    05:00 +12°C° 0 mm 3 m/S 757 mmHg 59%
    06:00 +13°C° 0 mm 3 m/S 757 mmHg 59%
    07:00 +13°C° 0 mm 3 m/S 758 mmHg 59%
    08:00 +16°C° 0 mm 3 m/S 758 mmHg 54%
    09:00 +18°C° 0 mm 3 m/S 758 mmHg 50%
    10:00 +19°C° 0 mm 3 m/S 758 mmHg 45%
    11:00 +20°C° 0 mm 3 m/S 758 mmHg 42%
    12:00 +20°C° 0 mm 4 m/S 758 mmHg 38%
    13:00 +20°C° 0 mm 4 m/S 758 mmHg 35%
    14:00 +20°C° 0 mm 4 m/S 758 mmHg 36%
    15:00 +20°C° 0 mm 4 m/S 757 mmHg 37%
    16:00 +20°C° 0 mm 4 m/S 757 mmHg 39%
    17:00 +18°C° 0 mm 4 m/S 757 mmHg 45%
    18:00 +16°C° 0 mm 3 m/S 757 mmHg 51%
    19:00 +14°C° 0 mm 3 m/S 758 mmHg 57%
    20:00 +13°C° 0 mm 3 m/S 758 mmHg 59%
    21:00 +13°C° 0 mm 2 m/S 758 mmHg 61%
    22:00 +12°C° 0 mm 2 m/S 758 mmHg 63%
    23:00 +12°C° 0 mm 2 m/S 758 mmHg 62%

    Morgen, 11 April, Samstag

    Zeit Temperatur Niederschläge Wind Luftdruck Luftfeuchtigkeit
    00:00 +10°C° 0 mm 2 m/S 758 mmHg 61%
    01:00 +9°C° 0 mm 2 m/S 759 mmHg 60%
    02:00 +10°C° 0 mm 1 m/S 759 mmHg 59%
    03:00 +9°C° 0 mm 1 m/S 759 mmHg 59%
    04:00 +9°C° 0 mm 1 m/S 758 mmHg 58%
    05:00 +10°C° 0 mm 1 m/S 759 mmHg 56%
    06:00 +10°C° 0 mm 1 m/S 759 mmHg 54%
    07:00 +11°C° 0 mm 1 m/S 759 mmHg 52%
    08:00 +12°C° 0 mm 1 m/S 759 mmHg 48%
    09:00 +14°C° 0 mm 1 m/S 760 mmHg 44%
    10:00 +16°C° 0 mm 1 m/S 760 mmHg 40%
    11:00 +18°C° 0 mm 1 m/S 760 mmHg 37%
    12:00 +19°C° 0 mm 1 m/S 759 mmHg 35%
    13:00 +20°C° 0 mm 1 m/S 759 mmHg 33%
    14:00 +20°C° 0 mm 1 m/S 759 mmHg 33%
    15:00 +20°C° 0 mm 1 m/S 759 mmHg 33%
    16:00 +20°C° 0 mm 1 m/S 758 mmHg 32%
    17:00 +17°C° 0 mm 2 m/S 758 mmHg 37%
    18:00 +16°C° 0 mm 2 m/S 758 mmHg 42%
    19:00 +14°C° 0 mm 2 m/S 758 mmHg 47%
    20:00 +13°C° 0 mm 2 m/S 759 mmHg 51%
    21:00 +12°C° 0 mm 2 m/S 759 mmHg 55%
    22:00 +12°C° 0 mm 2 m/S 759 mmHg 59%
    23:00 +10°C° 0 mm 2 m/S 759 mmHg 60%

    übermorgen, 12 April, Sonntag

    Zeit Temperatur Niederschläge Wind Luftdruck Luftfeuchtigkeit
    00:00 +11°C° 0 mm 1 m/S 759 mmHg 62%
    01:00 +10°C° 0 mm 1 m/S 759 mmHg 64%
    02:00 +10°C° 0 mm 1 m/S 759 mmHg 64%
    03:00 +9°C° 0 mm 1 m/S 759 mmHg 65%
    04:00 +9°C° 0 mm 1 m/S 759 mmHg 65%
    05:00 +9°C° 0 mm 2 m/S 759 mmHg 64%
    06:00 +9°C° 0 mm 2 m/S 759 mmHg 62%
    07:00 +10°C° 0 mm 2 m/S 759 mmHg 60%
    08:00 +13°C° 0 mm 2 m/S 759 mmHg 56%
    09:00 +14°C° 0 mm 2 m/S 758 mmHg 52%
    10:00 +16°C° 0 mm 3 m/S 758 mmHg 48%
    11:00 +17°C° 0 mm 3 m/S 758 mmHg 45%
    12:00 +18°C° 0 mm 3 m/S 757 mmHg 43%
    13:00 +19°C° 0 mm 3 m/S 757 mmHg 41%
    14:00 +19°C° 0 mm 3 m/S 756 mmHg 41%
    15:00 +19°C° 0 mm 3 m/S 756 mmHg 42%
    16:00 +19°C° 0 mm 3 m/S 755 mmHg 43%
    17:00 +18°C° 0 mm 3 m/S 755 mmHg 47%
    18:00 +16°C° 0 mm 3 m/S 754 mmHg 51%
    19:00 +14°C° 0 mm 3 m/S 754 mmHg 56%
    20:00 +13°C° 0 mm 3 m/S 754 mmHg 56%
    21:00 +12°C° 0 mm 3 m/S 754 mmHg 56%
    22:00 +11°C° 0 mm 3 m/S 754 mmHg 56%
    23:00 +11°C° 0 mm 3 m/S 753 mmHg 59%

    13 April, Montag

    Zeit Temperatur Niederschläge Wind Luftdruck Luftfeuchtigkeit
    00:00 +11°C° 0 mm 3 m/S 753 mmHg 61%
    01:00 +11°C° 0 mm 3 m/S 752 mmHg 64%
    02:00 +11°C° 0 mm 3 m/S 752 mmHg 66%
    03:00 +11°C° 0 mm 3 m/S 752 mmHg 67%
    04:00 +11°C° 0 mm 3 m/S 752 mmHg 69%
    05:00 +11°C° 0 mm 4 m/S 751 mmHg 68%
    06:00 +12°C° 0 mm 4 m/S 751 mmHg 68%
    07:00 +12°C° 0 mm 4 m/S 751 mmHg 67%
    08:00 +14°C° 0 mm 5 m/S 751 mmHg 62%
    09:00 +16°C° 0 mm 5 m/S 751 mmHg 57%
    10:00 +19°C° 0 mm 6 m/S 750 mmHg 52%
    11:00 +20°C° 0 mm 6 m/S 750 mmHg 49%
    12:00 +20°C° 0 mm 6 m/S 749 mmHg 45%
    13:00 +21°C° 0 mm 6 m/S 749 mmHg 42%
    14:00 +21°C° 0.1 mm 6 m/S 748 mmHg 43%
    15:00 +21°C° 0.1 mm 5 m/S 748 mmHg 43%
    16:00 +21°C° 0.1 mm 5 m/S 747 mmHg 44%
    17:00 +20°C° 0 mm 5 m/S 747 mmHg 47%
    18:00 +18°C° 0 mm 4 m/S 747 mmHg 51%
    19:00 +17°C° 0 mm 4 m/S 746 mmHg 55%
    20:00 +15°C° 0 mm 4 m/S 746 mmHg 56%
    21:00 +14°C° 0 mm 4 m/S 746 mmHg 57%
    22:00 +13°C° 0 mm 3 m/S 746 mmHg 59%
    23:00 +13°C° 0 mm 4 m/S 746 mmHg 58%

    14 April, Dienstag

    Zeit Temperatur Niederschläge Wind Luftdruck Luftfeuchtigkeit
    00:00 +12°C° 0 mm 4 m/S 745 mmHg 58%
    01:00 +11°C° 0 mm 4 m/S 745 mmHg 58%
    02:00 +12°C° 0 mm 4 m/S 745 mmHg 64%
    03:00 +12°C° 0 mm 5 m/S 745 mmHg 69%
    04:00 +11°C° 0 mm 6 m/S 745 mmHg 75%
    05:00 +10°C° 0.1 mm 6 m/S 746 mmHg 74%
    06:00 +10°C° 0.1 mm 6 m/S 746 mmHg 72%
    07:00 +9°C° 0.1 mm 7 m/S 747 mmHg 71%
    08:00 +9°C° 0.2 mm 7 m/S 748 mmHg 67%
    09:00 +8°C° 0.2 mm 7 m/S 749 mmHg 63%
    10:00 +7°C° 0.2 mm 6 m/S 750 mmHg 60%
    11:00 +8°C° 0.1 mm 7 m/S 751 mmHg 56%
    12:00 +8°C° 0.1 mm 7 m/S 751 mmHg 53%
    13:00 +8°C° 0.1 mm 7 m/S 752 mmHg 50%
    14:00 +8°C° 0 mm 5 m/S 752 mmHg 50%
    15:00 +8°C° 0 mm 4 m/S 752 mmHg 50%
    16:00 +9°C° 0 mm 2 m/S 753 mmHg 50%
    17:00 +8°C° 0 mm 2 m/S 753 mmHg 52%
    18:00 +7°C° 0 mm 2 m/S 753 mmHg 53%
    19:00 +6°C° 0 mm 2 m/S 754 mmHg 55%
    20:00 +5°C° 0 mm 2 m/S 754 mmHg 56%
    21:00 +5°C° 0 mm 2 m/S 754 mmHg 57%
    22:00 +4°C° 0 mm 2 m/S 755 mmHg 58%
    23:00 +4°C° 0 mm 2 m/S 755 mmHg 56%

    15 April, Mittwoch

    Zeit Temperatur Niederschläge Wind Luftdruck Luftfeuchtigkeit
    00:00 +4°C° 0 mm 2 m/S 755 mmHg 54%
    01:00 +3°C° 0 mm 2 m/S 755 mmHg 52%
    02:00 +3°C° 0 mm 2 m/S 755 mmHg 52%
    03:00 +4°C° 0 mm 1 m/S 755 mmHg 51%
    04:00 +3°C° 0 mm 1 m/S 755 mmHg 51%
    05:00 +4°C° 0 mm 1 m/S 755 mmHg 50%
    06:00 +5°C° 0 mm 1 m/S 755 mmHg 49%
    07:00 +6°C° 0 mm 1 m/S 756 mmHg 48%
    08:00 +8°C° 0 mm 1 m/S 756 mmHg 44%
    09:00 +9°C° 0 mm 1 m/S 756 mmHg 39%
    10:00 +11°C° 0 mm 1 m/S 756 mmHg 35%
    11:00 +12°C° 0 mm 1 m/S 756 mmHg 33%
    12:00 +13°C° 0 mm 1 m/S 755 mmHg 31%
    13:00 +14°C° 0 mm 1 m/S 755 mmHg 29%
    14:00 +14°C° 0 mm 1 m/S 755 mmHg 29%
    15:00 +14°C° 0 mm 1 m/S 755 mmHg 28%
    16:00 +14°C° 0 mm 1 m/S 754 mmHg 28%
    17:00 +13°C° 0 mm 1 m/S 755 mmHg 32%
    18:00 +11°C° 0 mm 1 m/S 755 mmHg 37%
    19:00 +10°C° 0 mm 1 m/S 755 mmHg 41%
    20:00 +9°C° 0 mm 1 m/S 755 mmHg 45%
    21:00 +8°C° 0 mm 1 m/S 756 mmHg 48%
    22:00 +7°C° 0 mm 2 m/S 756 mmHg 52%
    23:00 +6°C° 0 mm 2 m/S 756 mmHg 55%
    Mehr zeigen